Flag for Finland Weather past 2 weeks in Jyväskylä, Finland

Now
82 °F

Sunny.


Feels Like: 83 °F
Forecast: 59 / 83 °F
Wind: 2 mph from North

Location: Jyvaskyla Airport

Current Time: Jul 26, 2014 at 1:10:44 PM

Latest Report: Jul 26, 2014 at 12:20 PM


Visibility: 10 mi

Pressure: 30.12 "Hg

Humidity: 48%

Dew point: 61 °F

Location of JyväskyläLocation

Historic Weather in Jyväskylä — Graph

°F

Jyväskylä temperature yesterday

Maximum temperature yesterday: 86 °F (at 12:20 PM)
Minimum temperature yesterday: 59 °F (at 4:50 AM)
Average temperature yesterday: 75 °F

Past Weeks' High & Low Weather Summary

 TemperatureHumidityPressure
High86 °F (Jul 23, 4:50 PM)100% (Jul 12, 4:20 AM)30.30 "Hg (Jul 12, 4:20 AM)
Low48 °F (Jul 12, 3:20 AM)31% (Jul 11, 5:20 PM)29.86 "Hg (Jul 15, 4:20 PM)
Average68 °F72%30.09 "Hg
* Reported Jul 11 11:20 AM — Jul 26 11:50 AM, Jyväskylä, Weather by CustomWeather, © 2014

Note: Actual official high and low records may vary slightly from our data, if they occured in-between our weather recording intervals... More about our weather records

Advertising

Jyväskylä weather history for previous 24 hours

 ConditionsComfort  
Time TempWeatherWind HumidityBarometerVisibility
11:50 AM
Jul 26
82 °FSunny.6 mph48%30.12 "Hg10 mi
11:20 AM84 °FSunny.5 mph43%30.12 "Hg10 mi
10:50 AM82 °FSunny.2 mph45%30.12 "Hg10 mi
10:20 AM81 °FSunny.2 mph51%30.12 "Hg10 mi
9:50 AM81 °FSunny.1 mph54%30.12 "Hg10 mi
9:20 AM79 °FSunny.No wind54%30.12 "Hg10 mi
8:50 AM77 °FSunny.No wind61%30.12 "Hg10 mi
8:20 AM73 °FSunny.1 mph69%30.12 "Hg10 mi
7:50 AM70 °FSunny.No wind78%30.12 "Hg10 mi
7:20 AM68 °FSunny.No wind83%30.12 "Hg10 mi
6:50 AM64 °FSunny.1 mph94%30.12 "Hg10 mi
6:20 AM63 °FSunny.No wind94%30.12 "Hg10 mi
5:50 AM61 °FSunny.No wind94%30.12 "Hg10 mi
5:20 AM61 °FCool.No wind94%30.12 "HgN/A
4:50 AM61 °FClear.No wind94%30.12 "Hg10 mi
4:20 AM61 °FCool.No wind94%30.12 "HgN/A
3:50 AM61 °FCool.1 mph94%30.12 "HgN/A
3:20 AM63 °FClear.3 mph94%30.12 "Hg10 mi
2:50 AM63 °FClear.5 mph94%30.12 "Hg10 mi
2:20 AM63 °FClear.No wind94%30.12 "Hg10 mi
1:50 AM63 °FMild.No wind94%30.12 "HgN/A
1:20 AM64 °FClear.No wind88%30.12 "Hg10 mi
12:50 AM66 °FClear.No wind88%30.12 "Hg10 mi
12:20 AM64 °FClear.2 mph88%30.12 "Hg10 mi
11:50 PM
Jul 25
66 °FClear.2 mph88%30.12 "Hg10 mi
11:20 PM68 °FSunny.2 mph83%30.12 "Hg10 mi
10:50 PM70 °FSunny.2 mph78%30.12 "Hg10 mi
10:20 PM73 °FSunny.1 mph74%30.12 "Hg10 mi
9:50 PM75 °FSunny.2 mph74%30.09 "Hg10 mi
9:20 PM79 °FSunny.No wind58%30.09 "Hg10 mi
8:50 PM81 °FScattered clouds.1 mph51%30.09 "HgN/A
8:20 PM82 °FPassing clouds.5 mph48%30.09 "HgN/A
7:50 PM84 °FPassing clouds.5 mph40%30.09 "HgN/A
7:20 PM84 °FScattered clouds.5 mph40%30.09 "HgN/A
6:50 PM84 °FSunny.7 mph43%30.09 "Hg10 mi
6:20 PM84 °FPassing clouds.7 mph40%30.12 "HgN/A
5:50 PM84 °FPassing clouds.5 mph40%30.12 "HgN/A
5:20 PM84 °FSunny.6 mph40%30.12 "Hg10 mi
4:50 PM86 °FSunny.7 mph38%30.12 "Hg10 mi
4:20 PM86 °FSunny.6 mph35%30.12 "Hg10 mi
3:20 PM86 °FPassing clouds.2 mph35%30.12 "HgN/A
2:50 PM86 °FPassing clouds.3 mph35%30.12 "HgN/A
2:20 PM84 °FPassing clouds.3 mph37%30.15 "HgN/A
1:50 PM82 °FSunny.3 mph45%30.15 "Hg10 mi
1:20 PM84 °FPassing clouds.6 mph40%30.15 "HgN/A
Weather by CustomWeather, © 2014

See weather overviewHow to use our weather pages